{"data":{"norad_id":48233,"epoch":"2026-05-25T03:17:59.637120Z","epoch_age_seconds":59591,"freshness":"FRESH","line1":"1 48233U 21031Z   26145.13749580 -.00000210  00000+0 -60176-3 0  9999","line2":"2 48233  87.8943 294.3073 0001527 103.8006 256.3293 13.14501849245335","mean_motion":13.14501849,"eccentricity":0.0001527,"inclination_deg":87.8943,"raan_deg":294.3073,"arg_perigee_deg":103.8006,"mean_anomaly_deg":256.3293,"bstar":-0.00060176,"rev_number":24533,"period_min":109.54720231816,"perigee_km":1204.6359461969,"apogee_km":1206.9520787282,"semimajor_km":7583.9310124626,"source":"CELESTRAK","updated_at":"2026-05-25T13:38:22.438108Z"}}